Regional Weather Roundup
Issued by NWS Wakefield, VA

Home | Current Version | Previous Version | Text Only | Print | Product List | Glossary Off
Versions: 1 2 3 4 5 6 7 8 9 10 11 12 13 14 15 16 17 18 19 20 21 22 23 24 25 26 27

000
ASUS41 KAKQ 171715
RWRAKQ

REGIONAL WEATHER ROUNDUP
NATIONAL WEATHER SERVICE WAKEFIELD VA
100 PM EDT TUE OCT 17 2017

Note: "fair" indicates few or no clouds below 12,000 feet with no
significant weather and/or obstructions to visibility. * = Denotes
station may not report precipitation (e.g., rain,snow,etc.),
thunder or fog.

VAZ042-051-052>054-056-171800-
NORTHERN VIRGINIA

CITY           SKY/WX    TMP DP  RH WIND       PRES   REMARKS
WASH NATIONAL  SUNNY     60  35  39 N9        30.37F
DULLES         SUNNY     58  32  37 N7        30.36F
FORT BELVOIR   SUNNY     60  29  31 N3        30.36F
QUANTICO       SUNNY     59  35  40 E8        30.37F
FREDERICKSBRG* SUNNY     59  34  38 N5        30.35F
STAFFORD*      SUNNY     58  32  37 NW9       30.40F
WARRENTON      SUNNY     61  26  26 W3        30.36F
CULPEPER*      SUNNY     60  29  31 N7        30.37F
MANASSAS*      SUNNY     60  34  37 N7        30.36F
LEESBURG*      SUNNY     59  37  44 NW3       30.36F
WINCHESTER     SUNNY     55  32  41 NW7       30.35F
FRONT ROYAL*   SUNNY     55  32  41 N3        30.34F
LURAY*         SUNNY     59  34  38 NE7       30.35F
$$

VAZ048-049-060>072-079>083-171800-
CENTRAL AND SOUTH CENTRAL VIRGINIA

CITY           SKY/WX    TMP DP  RH WIND       PRES   REMARKS
RICHMOND       MOSUNNY   59  33  37 NW6       30.36F
CHESTERFIELD*  NOT AVBL
PETERSBURG*    SUNNY     59  26  28 N9        30.37F
HANOVER        SUNNY     59  34  39 CALM      30.37F
TAPPAHANNOCK*  SUNNY     60  26  27 N9        30.37S
QUINTON*       FAIR      58  31  36 NE7       30.35F
CHARLOTTSVILLE SUNNY     60  35  39 NE5       30.36F
GORDONSVILLE*  SUNNY     59  34  39 NE6       30.36F
ORANGE*        SUNNY     57  32  38 N6        30.36F
LOUISA*        SUNNY     57  34  41 NE5       30.36F
BUMPASS*       FAIR      57  32  38 NE3       30.36F
FARMVILLE*     SUNNY     61  36  39 NE9       30.36F
CREWE*         FAIR      59  33  38 N7        30.36F
FORT PICKETT*  FAIR      59  33  37 N8        30.36F
CHASE CITY*    FAIR      59  34  38 N7        30.36F
CLARKSVILLE*   FAIR      59  34  38 NE6       30.36F
SOUTH HILL*    SUNNY     59  39  47 NW7       30.41F
LAWRENCEVILLE* FAIR      60  36  41 N5        30.35F
EMPORIA*       SUNNY     59  36  41 NW8G16    30.36F
$$

VAZ088>098-171800-
SOUTHEAST VIRGINIA

CITY           SKY/WX    TMP DP  RH WIND       PRES   REMARKS
NORFOLK        MOSUNNY   59  42  53 N14G22    30.34F
VIRGINIA BEACH MOSUNNY   59  36  42 N12       30.32F
NORFOLK NAVAL  MOSUNNY   59  41  51 N14       30.35F
WEST POINT*    SUNNY     60  40  47 N5        30.37S
SALUDA*        FAIR      56  38  50 N6        30.35F
NEWPORT NEWS   SUNNY     59  40  49 N12       30.34F
LANGLEY AFB    MOSUNNY   57  39  51 N12G22    30.34F
FORT EUSTIS    SUNNY     61  38  41 NW7       30.32F
WILLIAMSBURG*  SUNNY     63  45  51 CALM      30.35F
HR EXEC AP*    NOT AVBL
FRANKLIN*      HAZE      60  38  44 N8        30.34F VSB 1
US460-WAKEFLD  SUNNY     60  41  49 N6        30.34F
$$

VAZ020-022-025-037-045-171800-
WEST CENTRAL AND SOUTHWEST VIRGINIA

CITY           SKY/WX    TMP DP  RH WIND       PRES   REMARKS
STAUNTON*      SUNNY     57  31  37 N3        30.38F
WAYNESBORO*    SUNNY     55  31  39 N7        30.36F
HOT SPRINGS VA SUNNY     49  29  45 CALM      30.35F
LYNCHBURG      SUNNY     58  33  39 VRB3      30.36F
DANVILLE       SUNNY     60  37  42 NE8       30.37F
SOUTH BOSTON*  FAIR      60  32  34 N9        30.37F
MARTINSVILLE   SUNNY     60  37  42 E6        30.39F
ROANOKE        SUNNY     59  34  39 NE13      30.38F
BLACKSBURG     SUNNY     58  36  44 SE3       30.39F
DUBLIN*        SUNNY     56  37  48 E3        30.38F
MARION*        SUNNY     57  33  40 SE6       30.39F
HILLSVILLE*    SUNNY     53  29  38 CALM      30.35F
RICHLANDS*     FAIR      55  33  44 CALM      30.37F
WISE*          SUNNY     54  37  54 N6        30.39F
ABINGDON*      SUNNY     59  36  41 SE7       30.36F
$$

MDZ021>025-VAZ099-100-171800-
SOUTHERN MARYLAND AND THE DELMARVA PENINSULA

CITY           SKY/WX    TMP DP  RH WIND       PRES   REMARKS
PATUXENT RIVER MOSUNNY   57  39  51 N8        30.35F
BAY BRIDGE APT SUNNY     55  37  50 NW8       30.36F
LEONARDTOWN    NOT AVBL
DOVER          SUNNY     55  36  47 NW6       30.32F
GEORGETOWN     SUNNY     57  36  45 NE8       30.34F
EASTON         SUNNY     57  32  38 N5        30.38F
CAMBRIDGE      SUNNY     55  36  47 NE7G13    30.35F
SALISBURY      SUNNY     57  37  47 N7        30.33F
OCEAN CITY     SUNNY     57  40  52 NE13      30.34F
WALLOPS ISLAND PTSUNNY   56  42  59 NE6G16    30.34F
ACCOMACK*      MOSUNNY   59  41  52 N6        30.33F
$$

NCZ012>017-030>032-171800-
NORTH CENTRAL AND EASTERN NORTH CAROLINA

CITY           SKY/WX    TMP DP  RH WIND       PRES   REMARKS
ROANOKE RAPIDS FAIR      61  41  48 NE7       30.34F
RALEIGH        MOSUNNY   60  37  42 NE12      30.35F
ELIZABETH CITY SUNNY     62  42  47 N20G26    30.30F
AHOSKIE*       SUNNY     59  40  48 N9G18     30.34F
EDENTON*       SUNNY     63  47  57 N6G14     30.32F
CURRITUCK*     SUNNY     59  36  42 N14G22    30.33F
KILL DEVIL HLS SUNNY     60  41  49 N9G22     30.29F
MANTEO         SUNNY    N/A N/A N/A N13G24    30.30F
CAPE HATTERAS  CLOUDY    65  47  52 NE13G24   30.26F
TARBORO*       NOT AVBL
GOLDSBORO      SUNNY     63  41  45 NE12      30.31F
WASHINGTON     SUNNY     62  43  50 N12G17    30.32F
GREENVILLE     SUNNY     63  43  48 N9        30.33F
NEW BERN       PTSUNNY   62  47  57 NE15G21   30.31S
WILMINGTON     CLOUDY    62  46  55 N14       30.29F
$$

VAZ048-171800-
ELSEWHERE

CITY           SKY/WX    TMP DP  RH WIND       PRES   REMARKS
HARRISBURG PA  SUNNY     57  33  40 W8        30.33F
BALTIMORE      MOSUNNY   58  32  37 VRB6      30.35F
ANNAPOLIS      SUNNY     57  40  52 N7        30.35F
ANDREWS AFB    SUNNY     56  32  39 N9        30.34F
PHILADELPHIA   SUNNY     55  31  39 CALM      30.33F
HENDERSON NC   SUNNY     57  35  44 NE7       30.36F
GREENSBORO     MOSUNNY   60  38  43 N8        30.35F
ROCKY MOUNT    SUNNY     62  39  42 N14       30.34F
$$

VAZ100-171800-
MARINE

STATION/POSITION TIME  TEMP    WIND        PRES    WAVE   SWELL
                       AIR SEA DIR/SP/G            HT/PER HT/PER
                 (UTC) (F)     (DEG/KT/KT) (MB)    (FT/S) (FT/S)
BRANDYWINE LGT   1642   51      10/  9/ 11 1027.9F
CAPE MAY NJ      1642   53 63  340/  6/ 10 1026.9F
LEWES DE         1642   52 62   20/  7/ 10 1027.3F
15NM E FENWICK I 1650   54 68  360/ 14/ 19 1027.2F   5/ 6   3/11
OCEAN-CITY-INLET 1642   53 67   20/ 10/ 13 1027.6F
WACHAPREAGUE VA  1642   56 63   50/ 10/ 16 1027.2F
THOMAS POINT MD  1700   52 68   20/  8/  9   N/A
GOOSES REEF MD   1650   54      40/ 12/ 16 1031.7F
COVE POINT MD    1642   53      10/  9/ 12 1028.7F
SOLOMONS ISLAND  1642   53 70   10/  9/ 13 1027.5F
BISHOPS HEAD MD  1606   53     360/  8/ 13 1028.2
PINEY POINT MD   1642           20/  9/ 11   N/A
POTOMAC MD       1650   54      40/ 12/ 14 1027.4F
CAMBRIDGE MD     1642   56 67              1028.4F
LEWISETTA VA     1642   55 62   60/  5/  8 1027.9F
RAPPAHANNOCK LGT 1642           20/ 11/ 17 1028.3F
STINGRAY PT      1650   54      40/ 12/ 17 1028.2F
YORK RVR RNG VA  1642   54      30/ 14/ 17 1028.1F
YORKTOWN VA      1642   55 71   20/  6/ 12 1027.4F
JAMESTOWN VA     1650          360/  6/ 10   N/A
DOMINION TERM VA 1642   56      30/  8/ 17 1027.8F
KIPTOPEKE VA     1642      68  350/  7/ 10   N/A
CAPE HENRY VA    1642   55     350/ 12/ 15   N/A
WILLOUBY STN VA  1642   54     360/ 17/ 19 1027.5F
S CRANEY ISL VA  1642   56      30/ 13/ 18 1027.3F
CAPE HENRY BUOY  1630      71                N/A     5/ 7   2/11
1ST LANDING BUOY 1650   55                 1027.7F
CAPE CHARLES BUO 1651      70                N/A     5/ 7   2/11
64NM E OF VA BCH 1650   60 67   10/ 16/ 19 1025.4S   7/ 8   5/ 8
DUCK PIER NC     1642   58 69   10/ 18/ 21 1025.4F
44100 DUCK FRF   1635      71                N/A     7/ 7   2/13
44056 DUCK FRF   1630      71                N/A     7/ 8   2/12
OREGON INLET NC  1642   59 67  360/ 13/ 19 1025.4F
HATTERAS NC      1642   61 70   30/ 19/ 26 1024.8F
DIAMOND SHLS NC  1650   64 81   20/ 23/ 27 1023.5F   9/ 9   5/ 9
CAPE LOOKOUT NC  1700   63      20/ 18/ 25 1024.2F
$$




USA.gov is the U.S. government's official web portal to all federal, state and local government web resources and services.